Simultaneous Nadir Overpasses (SNOs) Predictions

Prediction of SNOs between METOP-B and TERRA Satellite Orbit:

Table of predicted SNOs for the next 14.0 days since TLE Epoch: 6/28/2014
Index Date (METOP-B) Time (METOP-B) Lat,Lon (METOP-B) SZA (METOP-B ) Date (TERRA) Time (TERRA) Lat,Lon (TERRA) SZA (TERRA ) Distance(km) Time Diff (sec)
1 06/28/2014 19:02:45 81.33, -58.08 60.95 06/28/2014 19:02:52 81.32, -58.10 60.94 0.95 7
2 06/28/2014 19:53:24 -81.33, 109.66 119.00 06/28/2014 19:52:18 -81.33, 109.82 119.02 2.57 66
3 07/01/2014 13:46:25 -81.32,-159.37 118.95 07/01/2014 13:47:39 -81.31,-159.40 118.93 1.01 74
4 07/01/2014 14:37:04 81.33, 8.89 61.17 07/01/2014 14:37:04 81.34, 8.70 61.15 3.32 0
5 07/01/2014 15:27:44 -81.33, 176.28 118.83 07/01/2014 15:26:31 -81.33, 176.27 118.86 0.26 73
6 07/
